Date,TemperatureHighF,TemperatureAvgF,TemperatureLowF,DewpointHighF,DewpointAvgF,DewpointLowF,HumidityHigh,HumidityAvg,HumidityLow,PressureMaxIn,PressureMinIn,WindSpeedMaxMPH,WindSpeedAvgMPH,GustSpeedMaxMPH,PrecipitationSumIn
2013-1-1,35.3,28.8,16.8,23.0,12.7,-4.2,65,51,36,29.95,29.65,7,2,10,0.00
2013-1-2,27.2,17.1,7.8,12.2,2.7,-8.8,63,53,41,30.23,29.78,3,1,5,0.00
2013-1-3,19.8,12.1,-1.6,1.7,-8.0,-15.7,55,40,28,30.25,29.86,3,1,3,0.00
2013-1-4,38.4,26.6,14.3,21.1,13.1,1.9,68,57,46,30.04,29.58,8,1,9,0.00
2013-1-5,41.6,32.8,23.3,23.9,17.2,11.5,64,53,37,30.17,29.69,4,1,4,0.01
2013-1-6,39.6,30.2,23.8,28.0,20.9,13.1,77,68,59,30.25,29.77,3,0,4,0.02
2013-1-7,38.9,30.3,18.8,24.3,18.3,9.7,79,62,43,30.29,29.79,4,0,4,0.00
2013-1-8,41.6,26.1,13.7,26.2,15.3,4.2,71,64,53,30.45,30.11,3,0,4,0.01
2013-1-9,43.1,27.8,17.7,24.7,18.5,9.0,79,68,44,30.43,29.79,11,1,11,0.00
2013-1-10,45.6,37.6,26.9,27.5,21.8,17.1,70,53,40,30.62,29.87,8,2,14,0.00
2013-1-11,34.1,29.7,23.1,27.9,21.3,15.4,83,71,59,30.58,29.99,2,0,2,0.17
2013-1-12,40.2,35.5,32.4,36.3,31.6,27.9,90,86,83,30.22,29.93,2,0,5,0.02
2013-1-13,41.1,37.5,34.2,39.2,34.8,30.8,94,90,86,30.22,29.85,2,0,2,0.01
2013-1-14,50.3,40.3,35.5,44.6,31.9,21.4,94,74,46,30.14,29.83,4,0,4,0.01
2013-1-15,40.2,34.3,27.4,27.2,21.8,19.0,76,60,48,30.42,30.09,2,0,3,0.01
2013-1-16,32.6,31.2,29.6,28.0,25.7,21.5,85,80,69,30.27,29.68,3,0,3,0.00
2013-1-17,40.0,31.7,25.8,32.0,20.7,5.0,87,65,40,30.21,29.74,4,1,4,0.07
2013-1-18,26.0,20.6,15.7,5.5,-4.4,-12.7,50,33,22,30.58,30.05,4,1,6,0.00
2013-1-19,44.1,30.9,18.2,24.1,15.1,0.0,72,52,37,30.37,29.66,7,2,7,0.02
2013-1-20,44.9,35.0,24.5,30.0,20.5,3.7,71,56,35,29.83,29.34,8,2,8,0.00
2013-1-21,26.9,23.1,18.9,15.3,6.0,-1.5,72,48,34,30.11,29.62,4,1,5,0.00
2013-1-22,23.3,18.1,11.0,15.9,-1.5,-13.8,73,44,23,30.09,29.61,8,2,8,0.00
2013-1-23,13.9,9.3,4.9,-3.0,-17.8,-23.2,53,27,21,30.21,29.86,8,2,8,0.00
2013-1-24,18.2,8.6,-2.1,-9.1,-16.9,-22.7,47,31,21,30.22,29.87,6,2,8,0.38
2013-1-25,20.6,14.1,5.8,4.9,-12.8,-22.2,60,30,21,30.38,29.73,5,1,5,0.00
2013-1-26,23.6,15.4,6.0,4.2,-4.9,-13.3,62,42,24,30.19,29.75,5,1,6,0.00
2013-1-27,29.6,16.4,2.4,4.1,-5.3,-10.0,57,39,21,30.53,30.10,4,1,7,0.00
2013-1-28,23.8,18.5,12.1,16.9,7.2,-2.5,75,61,47,30.44,29.80,2,0,2,0.00
2013-1-29,32.8,28.8,23.8,27.6,21.8,16.8,84,75,69,30.18,29.78,2,0,2,0.08
2013-1-30,49.4,38.8,32.1,47.7,35.9,27.6,95,89,84,30.01,29.05,4,1,7,0.21
2013-1-31,56.0,42.1,25.8,54.9,32.1,12.0,96,70,31,29.49,28.81,11,3,11,0.47
2013-2-1,31.5,25.6,20.6,12.1,4.5,-4.6,55,40,27,30.07,29.36,8,2,11,0.00
2013-2-2,29.4,22.8,13.5,9.3,0.2,-7.7,54,38,24,30.20,29.85,12,2,12,0.00
2013-2-3,30.6,24.9,17.5,10.9,8.3,5.6,64,49,39,29.99,29.51,3,0,4,0.00
2013-2-4,29.6,23.7,18.6,9.4,2.3,-4.5,57,40,25,29.86,29.51,9,2,11,0.00
2013-2-5,30.8,24.4,18.4,17.2,7.6,1.8,69,49,35,29.99,29.62,4,1,4,0.00
2013-2-6,35.0,27.8,22.0,22.5,10.3,-7.7,76,51,22,30.19,29.69,5,1,8,0.00
2013-2-7,30.5,23.4,14.3,5.3,-2.1,-7.1,55,34,22,30.50,30.15,4,1,7,0.00
2013-2-8,28.3,24.5,18.8,21.1,10.8,-6.7,78,59,23,30.38,29.61,5,1,11,0.00
2013-2-9,27.4,20.5,14.3,16.1,-0.5,-13.5,80,41,24,30.19,29.62,9,2,12,0.00
2013-2-10,34.6,18.7,0.4,9.2,-1.6,-11.8,60,42,21,30.44,30.03,3,0,4,0.00
2013-2-11,32.1,24.6,15.0,28.2,17.0,3.3,86,73,57,30.27,29.47,2,0,3,0.00
2013-2-12,39.3,36.7,34.1,26.9,24.0,19.1,65,60,53,29.78,29.45,4,1,8,0.20
2013-2-13,42.0,34.6,30.3,24.5,20.6,17.5,66,57,46,29.83,29.43,2,0,4,0.00
2013-2-14,43.8,35.4,22.7,24.1,19.9,14.8,72,54,39,29.85,29.47,4,0,4,0.00
2013-2-15,49.2,35.0,23.4,31.2,23.3,15.3,82,63,43,29.95,29.62,4,1,4,0.00
2013-2-16,38.9,33.6,26.9,27.3,19.4,-4.2,82,58,25,29.94,29.56,5,1,8,0.02
2013-2-17,26.9,21.8,14.4,-1.1,-5.8,-12.2,34,29,22,29.65,29.30,8,2,10,0.00
2013-2-18,29.4,20.7,11.4,-1.0,-8.1,-13.0,39,27,21,30.07,29.56,7,1,7,0.00
2013-2-19,41.1,30.0,15.9,33.7,15.1,-2.9,86,55,30,30.17,29.44,4,0,8,0.04
2013-2-20,35.0,29.9,25.2,30.6,12.5,4.3,85,49,31,30.31,29.92,11,2,11,0.01
2013-2-21,30.1,26.1,22.4,11.1,7.2,1.7,55,44,33,30.67,30.16,7,2,10,0.00
2013-2-22,40.5,31.3,17.9,20.8,15.6,7.3,68,53,39,30.91,30.56,4,0,4,0.00
2013-2-23,34.8,33.2,31.9,29.6,25.0,20.6,85,72,60,30.79,30.21,3,0,4,0.05
2013-2-24,39.6,34.6,32.4,33.7,29.9,28.2,86,83,76,30.37,30.10,2,0,5,0.28
2013-2-25,44.3,34.6,27.4,35.6,27.2,23.5,87,75,60,30.75,30.32,2,0,3,0.04
2013-2-26,41.4,35.6,31.0,31.2,26.8,22.8,83,71,54,30.90,30.50,4,0,5,0.00
2013-2-27,38.0,34.9,32.3,34.5,29.9,23.7,89,82,63,30.61,30.02,6,1,8,1.17
2013-2-28,40.9,35.0,31.2,33.9,30.3,26.9,87,83,75,30.18,29.71,2,0,2,0.01
2013-3-1,47.9,37.0,29.2,34.5,25.9,20.5,86,66,45,30.08,29.74,4,1,5,0.01
2013-3-2,40.7,35.7,31.9,24.5,21.9,17.6,63,57,50,30.10,29.84,6,1,7,0.00
2013-3-3,38.9,32.5,28.5,27.4,20.6,16.5,70,61,55,30.06,29.78,6,1,6,0.00
2013-3-4,38.2,31.2,25.6,20.6,16.2,11.7,59,53,45,30.17,29.90,5,2,100,0.00
2013-3-5,45.0,36.8,29.2,24.5,20.9,15.0,63,52,43,30.48,30.07,4,1,8,0.00
2013-3-6,39.5,35.8,33.2,30.8,25.8,21.6,80,67,55,30.54,30.22,8,2,10,0.00
2013-3-7,38.2,34.0,31.2,28.6,25.3,21.8,82,70,57,30.53,30.22,6,2,9,0.05
2013-3-8,40.4,34.9,31.0,27.2,24.8,19.3,81,67,51,30.60,30.19,5,1,6,0.15
2013-3-9,56.6,39.1,24.0,32.2,18.0,12.1,78,47,19,30.63,30.41,6,1,29,0.00
2013-3-10,51.2,35.6,24.2,30.1,22.3,15.5,75,59,34,30.79,29.61,4,1,5,0.00
2013-3-11,49.4,42.0,35.3,38.5,32.2,27.2,78,68,58,29.73,29.42,4,2,6,0.00
2013-3-12,51.7,46.8,41.3,49.6,43.5,35.9,93,88,78,29.55,29.03,4,1,8,0.87
2013-3-13,48.8,40.6,32.4,35.6,24.3,11.9,84,56,26,29.34,29.11,5,1,6,0.00
2013-3-14,35.7,29.3,24.0,19.8,7.6,-2.3,53,40,25,29.47,29.14,7,2,7,0.00
2013-3-15,40.5,31.4,22.2,27.1,9.8,-4.7,76,42,21,29.46,29.01,8,3,11,0.00
2013-3-16,38.7,32.5,24.9,19.9,8.1,2.8,56,36,24,29.40,29.09,4,1,5,0.00
2013-3-17,37.1,30.7,23.4,12.3,3.3,-6.1,52,32,20,29.72,29.24,6,2,8,0.00
2013-3-18,39.3,29.1,16.2,20.0,1.6,-6.5,69,32,20,29.98,29.49,5,1,7,0.00
2013-3-19,33.9,30.9,27.9,29.3,26.1,20.1,85,82,70,29.60,29.02,2,0,4,0.00
2013-3-20,36.2,30.4,24.3,26.5,16.8,14.1,83,57,43,29.31,29.01,8,1,9,0.07
2013-3-21,39.8,28.9,15.9,18.6,11.2,4.6,72,50,26,29.38,28.97,4,1,98,0.05
2013-3-22,39.1,30.6,19.8,20.6,14.9,9.8,66,52,42,29.29,29.00,7,2,8,0.09
2013-3-23,40.9,34.6,28.8,19.8,16.9,13.7,64,49,34,29.33,29.05,7,2,11,0.04
2013-3-24,45.4,37.5,30.5,22.3,19.1,15.3,59,48,35,29.42,29.07,6,1,6,0.00
2013-3-25,45.4,37.5,28.8,26.4,21.7,17.9,69,53,37,29.32,28.83,8,1,12,0.00
2013-3-26,47.2,38.8,29.7,30.0,22.0,13.5,73,52,28,29.34,28.93,3,0,4,0.00
2013-3-27,54.9,37.6,25.2,32.7,21.8,15.9,68,56,24,30.00,29.32,4,1,5,0.00
2013-3-28,50.6,42.7,35.7,34.1,29.0,26.6,81,59,43,30.22,29.78,4,0,4,0.01
2013-3-29,58.7,45.0,32.3,33.5,27.6,23.4,77,53,28,30.12,29.83,5,1,8,0.00
2013-3-30,57.6,45.6,29.9,31.4,21.6,14.1,74,43,20,30.14,29.87,4,1,7,0.00
2013-3-31,56.7,42.9,28.5,38.7,25.6,19.6,85,55,25,30.19,29.59,7,1,10,0.08
2013-4-1,57.3,43.8,32.8,43.3,30.8,2.5,89,64,24,29.74,29.42,8,2,10,0.18
2013-4-2,39.6,33.5,28.1,20.4,9.7,1.1,59,38,22,29.93,29.68,11,3,14,0.00
2013-4-3,44.0,35.3,27.9,17.8,9.1,4.6,58,35,21,30.11,29.80,8,3,10,0.00
2013-4-4,54.9,42.3,26.5,25.1,15.0,9.8,57,35,19,30.33,29.85,7,2,8,0.00
2013-4-5,60.9,45.1,33.9,31.1,24.4,17.9,74,48,20,29.98,29.58,5,2,8,0.00
2013-4-6,47.4,38.9,30.3,27.0,8.6,-0.1,62,29,20,30.29,29.76,8,2,8,0.00
2013-4-7,56.4,41.9,30.3,38.2,24.3,12.5,80,51,32,30.32,29.54,8,2,13,0.00
2013-4-8,65.2,50.4,34.4,39.1,34.5,30.3,91,59,28,29.94,29.62,4,1,4,0.00
2013-4-9,66.5,55.8,43.8,50.7,42.6,38.0,94,63,45,29.82,29.45,5,1,8,0.02
2013-4-10,63.6,54.5,47.7,51.9,48.2,41.6,95,81,60,29.84,26.70,3,1,4,0.40
2013-4-11,51.2,46.1,38.2,48.6,38.3,27.8,96,75,51,30.03,29.51,6,1,8,0.05
2013-4-12,38.4,35.6,33.3,34.5,32.7,30.6,93,89,79,30.08,29.52,5,1,6,0.39
2013-4-13,53.0,43.4,34.4,40.0,35.3,32.3,95,75,47,29.71,29.52,4,1,6,0.09
2013-4-14,53.7,44.8,35.3,37.3,30.1,23.3,85,59,32,29.99,29.57,6,1,7,0.00
2013-4-15,57.8,45.3,29.9,34.2,28.8,23.6,79,55,34,30.20,29.96,6,1,7,0.00
2013-4-16,65.4,52.3,40.9,52.7,42.6,31.8,89,70,47,30.23,29.74,8,2,11,0.01
2013-4-17,65.2,56.7,46.3,51.9,33.9,21.0,93,47,22,30.08,29.80,4,1,7,0.00
2013-4-18,63.4,51.2,36.2,45.4,32.6,27.3,78,52,27,30.34,29.77,11,2,11,0.00
2013-4-19,70.8,59.7,50.4,61.7,55.4,45.4,99,86,70,29.86,29.22,9,2,11,0.13
2013-4-20,59.6,49.7,38.9,57.0,34.8,20.4,93,60,30,30.10,29.28,8,2,10,0.46
2013-4-21,52.6,43.5,33.5,25.0,16.7,11.5,59,36,19,30.43,30.10,4,1,7,0.00
2013-4-22,57.1,44.5,31.5,28.8,22.2,13.6,69,45,20,30.59,30.27,7,2,13,0.00
2013-4-23,44.0,40.8,38.2,37.2,32.9,28.2,84,73,63,30.44,29.89,8,1,8,0.00
2013-4-24,74.7,57.4,41.6,48.4,43.0,37.0,87,63,30,29.94,29.40,10,2,10,0.00
2013-4-25,60.9,53.7,42.7,49.7,31.5,19.0,93,47,20,30.04,29.48,5,2,10,0.00
2013-4-26,65.6,52.8,34.1,34.2,28.1,23.1,79,43,20,30.42,30.03,4,1,7,0.00
2013-4-27,67.0,54.9,37.5,37.6,30.9,21.9,75,44,21,30.28,29.93,7,1,9,0.00
2013-4-28,71.0,57.6,39.6,41.1,34.4,23.9,82,47,17,30.26,29.85,5,1,7,0.00
2013-4-29,67.4,57.1,48.5,45.8,35.0,25.0,66,45,29,30.14,29.87,9,2,9,0.00
2013-4-30,71.5,61.8,51.3,41.0,28.1,16.4,64,32,14,30.19,29.88,6,1,7,0.00
2013-5-1,74.6,60.9,41.3,44.6,31.3,20.7,74,38,15,30.36,30.01,8,1,8,0.00
2013-5-2,81.2,63.0,44.5,45.3,38.2,25.6,85,47,16,30.29,29.88,11,2,11,0.00
2013-5-3,68.3,58.5,43.8,44.7,38.2,26.3,74,48,33,30.32,30.00,8,1,8,0.00
2013-5-4,73.3,60.2,42.9,47.3,36.0,19.7,90,48,14,30.22,29.80,5,1,9,0.00
2013-5-5,71.1,57.4,37.8,42.4,32.8,26.7,80,44,19,30.20,29.79,5,1,5,0.00
2013-5-6,72.0,56.4,40.9,46.5,37.4,18.0,91,57,13,30.14,29.78,4,1,5,0.00
2013-5-7,80.1,65.8,44.0,56.0,45.6,25.1,90,55,14,30.06,29.72,4,1,6,0.00
2013-5-8,74.6,64.3,53.9,62.7,57.7,51.3,97,80,57,29.92,29.62,10,1,11,0.48
2013-5-9,71.9,63.1,56.7,61.5,58.2,53.7,99,85,54,29.71,29.48,5,0,6,0.11
2013-5-10,78.3,65.4,52.6,61.4,55.6,51.8,99,74,44,29.76,29.49,4,1,6,0.00
2013-5-11,67.2,62.4,58.5,65.2,59.8,55.0,98,92,68,29.52,29.31,4,1,6,0.98
2013-5-12,69.9,58.3,47.0,61.1,46.0,27.5,99,68,32,29.57,29.28,7,1,8,0.06
2013-5-13,56.4,47.9,39.8,37.0,30.2,23.8,85,53,31,29.85,29.58,4,1,6,0.00
2013-5-14,60.3,50.2,37.5,41.0,31.6,22.4,90,54,25,29.95,29.67,3,1,4,0.00
2013-5-15,62.5,50.9,33.5,51.5,41.5,29.8,97,73,42,30.02,29.47,8,1,8,0.01
2013-5-16,81.2,65.8,43.2,52.3,39.3,23.3,99,48,16,29.67,29.34,4,1,7,0.00
2013-5-17,70.8,61.6,47.2,44.5,38.3,28.0,80,45,23,29.92,29.47,5,1,8,0.00
2013-5-18,75.1,61.2,45.2,48.8,43.2,37.4,85,55,26,30.18,29.85,4,1,6,0.00
2013-5-19,67.7,57.9,47.6,57.1,52.0,43.9,99,82,61,30.14,29.92,4,1,5,0.07
2013-5-20,80.5,67.6,55.7,65.2,60.3,55.4,99,80,54,29.93,29.59,3,0,4,0.00
2013-5-21,87.7,69.3,54.6,70.4,61.9,52.9,96,80,44,29.66,29.36,5,1,7,0.70
2013-5-22,72.0,63.3,54.2,69.2,61.0,53.0,99,93,81,29.62,29.42,4,0,36,0.51
2013-5-23,74.2,67.3,63.8,70.1,66.2,62.9,99,96,84,29.54,29.23,4,1,7,0.58
2013-5-24,67.4,59.8,47.0,65.9,56.0,44.3,99,88,69,29.59,29.22,4,1,4,0.30
2013-5-25,49.9,46.5,43.4,46.2,43.4,39.7,97,89,79,29.70,29.47,5,1,5,0.20
2013-5-26,58.7,49.7,41.1,43.0,40.6,39.0,94,73,49,29.85,29.45,4,1,4,0.05
2013-5-27,73.1,58.7,38.2,48.0,39.2,30.0,98,56,21,30.04,29.82,5,1,5,0.00
2013-5-28,74.9,62.3,43.2,55.0,44.6,37.0,90,57,26,30.15,29.86,4,1,4,0.00
2013-5-29,69.7,62.5,58.2,64.9,60.2,55.2,99,92,82,29.91,29.69,4,0,4,1.07
2013-5-30,87.5,73.8,61.6,71.3,64.7,60.8,99,77,46,29.89,29.57,3,1,4,0.01
2013-5-31,93.5,79.6,62.1,72.4,65.2,59.8,95,66,34,29.72,29.36,4,0,4,0.00
2013-6-1,93.5,80.7,64.7,70.9,66.5,62.2,94,65,37,29.49,29.25,4,1,6,0.00
2013-6-2,89.5,77.3,69.7,71.5,68.3,65.4,94,75,53,29.28,29.06,6,1,10,0.39
2013-6-3,78.3,69.5,56.4,68.3,60.2,43.3,98,75,52,29.33,29.13,3,0,3,0.19
2013-6-4,74.0,64.9,49.2,48.3,43.9,39.2,76,48,33,29.67,29.33,4,1,4,0.00
2013-6-5,75.8,65.7,50.4,51.7,48.3,42.9,85,56,35,29.92,29.63,3,1,4,0.00
2013-6-6,74.6,64.5,53.5,56.5,51.0,46.8,91,63,38,29.91,29.69,5,1,5,0.13
2013-6-7,57.8,55.2,53.0,55.6,54.1,52.1,99,96,86,29.80,29.57,4,0,4,1.57
2013-6-8,76.2,63.9,51.9,62.4,56.7,51.3,99,79,57,29.69,29.53,4,1,5,0.46
2013-6-9,80.3,69.0,52.6,58.8,55.4,50.9,96,65,42,29.93,29.65,5,1,6,0.00
2013-6-10,71.3,61.9,54.8,62.8,58.2,52.8,98,88,66,30.10,29.80,2,0,4,0.96
2013-6-11,65.2,60.3,56.7,60.5,58.4,56.4,99,94,79,29.80,29.47,2,0,3,0.92
2013-6-12,74.6,65.7,56.7,58.3,53.5,50.7,91,66,47,29.76,29.47,4,1,6,0.01
2013-6-13,58.4,55.3,51.2,56.9,53.4,49.2,99,94,85,29.84,29.72,3,0,29,1.36
2013-6-14,74.4,62.1,51.7,58.2,53.2,44.8,98,77,36,29.81,29.46,4,0,6,0.38
2013-6-15,82.7,67.9,51.0,58.2,49.0,37.2,97,58,21,29.91,29.65,5,0,7,0.00
2013-6-16,71.5,64.0,51.7,63.3,55.6,48.3,89,75,56,29.90,29.41,4,0,4,0.00
2013-6-17,87.3,70.7,57.1,65.7,60.4,55.4,94,73,35,29.77,29.52,5,1,6,0.33
2013-6-18,67.2,61.8,58.4,63.9,59.3,54.9,98,91,83,29.81,29.64,2,0,3,0.84
2013-6-19,74.4,64.6,50.4,57.7,47.9,40.5,99,59,33,29.99,29.79,7,1,8,0.00
2013-6-20,78.2,65.7,47.0,57.1,49.2,40.5,91,59,26,30.27,29.96,4,1,7,0.00
2013-6-21,85.4,70.7,54.0,62.0,55.2,48.6,94,62,31,30.14,29.84,4,1,5,0.00
2013-6-22,86.4,73.6,58.2,65.7,59.7,54.1,88,64,38,30.03,29.73,4,1,4,0.00
2013-6-23,90.8,78.7,65.7,73.0,64.7,58.8,82,63,46,29.95,29.57,4,1,5,0.00
2013-6-24,95.3,79.6,69.3,72.1,69.1,67.3,94,73,45,29.76,29.50,4,1,4,0.26
2013-6-25,92.4,78.2,66.1,73.7,68.3,65.3,97,75,44,29.64,29.37,4,1,5,0.00
2013-6-26,87.5,76.9,69.3,71.3,67.8,66.1,92,75,52,29.62,29.33,4,0,5,0.00
2013-6-27,82.3,72.9,67.0,71.4,67.7,64.2,95,84,66,29.51,29.26,7,1,7,0.00
2013-6-28,82.1,72.2,64.5,73.8,68.3,63.8,99,88,69,29.31,29.09,9,2,11,1.83
2013-6-29,82.7,76.0,69.5,71.4,69.2,66.3,98,81,58,29.42,29.10,8,2,8,0.00
2013-6-30,85.4,75.8,69.2,73.6,70.5,67.4,95,85,63,29.63,29.24,6,1,7,0.05
2013-7-1,77.4,73.5,71.7,75.3,71.9,70.2,97,95,87,29.83,29.45,3,0,5,1.03
2013-7-2,83.0,76.6,71.7,74.4,72.4,70.3,98,87,73,29.96,29.66,4,1,8,0.02
2013-7-3,86.8,79.1,72.9,73.9,72.0,69.3,96,80,56,29.95,29.71,5,1,7,0.00
2013-7-4,91.8,81.6,71.9,75.7,72.3,69.8,96,75,51,29.91,29.57,6,2,7,0.00
2013-7-5,91.5,83.6,73.8,75.5,73.0,70.0,95,72,50,29.92,29.56,5,1,7,0.00
2013-7-6,94.0,81.6,72.6,74.6,70.4,67.1,93,71,47,29.84,29.51,5,1,5,0.00
2013-7-7,88.4,77.3,69.3,74.8,70.4,65.7,92,80,60,29.79,29.44,5,1,5,0.00
2013-7-8,90.9,80.3,72.2,73.8,70.2,66.9,97,74,47,29.78,29.44,7,1,8,0.00
2013-7-9,82.1,75.8,71.0,72.6,70.0,67.6,89,82,70,29.90,29.59,4,1,6,0.00
2013-7-10,85.0,76.1,71.9,76.9,72.4,69.1,95,88,69,29.94,29.44,7,1,7,0.07
2013-7-11,84.5,77.7,71.3,73.3,68.5,61.9,96,75,50,30.00,29.72,5,1,5,0.00
2013-7-12,83.4,74.0,67.7,62.5,60.2,56.5,75,63,46,30.28,29.89,6,1,7,0.00
2013-7-13,76.4,71.7,66.8,68.6,63.7,58.6,87,76,66,30.34,30.09,2,0,4,0.00
2013-7-14,92.7,81.1,69.9,73.8,69.8,67.1,92,71,47,30.28,29.98,4,0,5,0.00
2013-7-15,94.5,82.5,71.3,73.6,70.2,66.7,91,68,44,30.23,29.98,4,0,4,0.00
2013-7-16,96.3,83.3,69.9,71.8,67.8,64.1,86,62,37,30.26,30.04,4,0,4,0.00
2013-7-17,96.7,83.8,69.9,73.1,69.3,65.2,85,64,43,30.26,30.01,3,0,4,0.00
2013-7-18,98.1,85.8,73.7,74.8,71.4,68.4,90,65,42,30.17,29.85,4,0,4,0.00
2013-7-19,99.0,86.7,73.7,75.2,71.5,69.3,89,63,42,30.02,29.75,4,1,7,0.00
2013-7-20,93.5,81.8,73.1,74.4,67.1,59.9,80,62,46,30.00,29.57,3,0,4,0.00
2013-7-21,85.4,77.4,65.6,65.8,62.7,60.0,85,62,43,30.10,29.80,4,0,4,0.00
2013-7-22,85.4,75.4,66.1,71.6,65.2,59.5,93,72,55,30.19,29.88,4,1,6,0.37
2013-7-23,82.3,73.4,68.1,73.5,69.0,66.7,97,87,64,29.88,29.56,2,0,4,2.59
2013-7-24,83.6,74.2,61.8,70.1,62.0,50.3,94,68,45,30.06,29.55,3,1,4,0.00
2013-7-25,74.0,65.3,56.9,61.0,53.0,47.3,83,65,51,30.27,29.95,5,1,5,0.00
2013-7-26,69.3,66.5,62.7,62.1,60.4,58.8,89,81,72,30.14,29.90,2,0,3,0.01
2013-7-27,82.3,70.4,56.9,66.3,61.0,54.4,95,74,52,30.14,29.82,6,1,6,0.00
2013-7-28,80.7,72.1,63.6,67.0,63.9,60.3,92,76,51,30.01,29.78,4,1,5,0.00
2013-7-29,85.2,75.9,68.1,69.3,64.3,58.5,91,69,45,30.19,29.71,5,1,8,0.00
2013-7-30,84.1,72.4,58.7,60.4,57.8,54.9,87,62,41,30.05,29.81,4,1,4,0.00
2013-7-31,86.1,73.9,59.8,64.4,59.5,55.9,87,63,38,30.26,29.86,4,1,4,0.00
2013-8-1,82.3,67.6,59.6,67.0,62.6,55.9,96,85,58,29.96,29.73,4,1,6,0.73
2013-8-2,83.6,73.4,64.5,69.0,61.8,55.8,99,71,41,30.21,29.69,7,1,8,0.01
2013-8-3,81.0,70.8,61.6,63.6,57.5,50.3,91,66,36,30.15,29.94,4,0,4,0.00
2013-8-4,84.8,69.1,57.6,61.4,54.6,51.4,86,62,35,30.26,29.96,2,0,6,0.00
2013-8-5,78.5,67.2,53.9,56.9,48.1,37.2,87,55,23,30.30,30.10,5,1,5,0.00
2013-8-6,78.0,67.0,51.0,58.5,51.7,46.4,87,61,33,30.47,30.23,4,1,6,0.00
2013-8-7,79.6,69.3,58.9,62.2,57.8,54.3,87,69,43,30.46,30.16,7,1,7,0.00
2013-8-8,82.5,74.1,66.3,71.0,67.8,62.0,96,81,66,30.24,29.97,7,1,8,0.00
2013-8-9,78.9,73.7,70.8,74.7,71.4,69.0,97,92,86,30.01,29.75,5,1,10,1.33
2013-8-10,85.0,73.2,63.2,69.3,58.8,49.2,97,65,38,30.05,29.82,6,1,11,0.01
2013-8-11,82.1,69.4,54.6,58.9,54.0,48.0,88,61,32,30.45,30.03,4,1,7,0.00
2013-8-12,81.8,70.5,58.2,63.1,58.5,55.0,90,68,41,30.32,29.99,5,1,5,0.00
2013-8-13,73.8,68.2,63.9,69.6,64.7,61.0,95,89,78,30.03,29.76,4,0,7,0.30
2013-8-14,71.9,63.7,54.9,64.3,53.3,49.8,96,70,50,30.11,29.79,4,1,8,0.00
2013-8-15,78.5,64.3,50.1,56.5,51.9,47.6,92,67,37,30.38,30.12,5,0,6,0.00
2013-8-16,81.8,66.0,52.4,58.8,53.1,48.0,94,67,34,30.50,30.25,4,0,5,0.00
2013-8-17,80.9,68.3,53.1,62.0,55.7,48.6,90,67,34,30.59,30.33,3,0,4,0.00
2013-8-18,79.2,69.0,58.2,64.5,60.0,55.1,90,74,51,30.58,30.15,5,1,5,0.00
2013-8-19,82.7,69.7,59.1,64.8,60.7,57.4,95,75,47,30.29,30.01,3,0,5,0.00
2013-8-20,85.7,71.7,57.6,64.0,60.1,55.0,92,70,44,30.36,30.03,4,1,5,0.00
2013-8-21,89.0,74.0,59.6,66.8,62.1,56.9,92,69,41,30.36,29.98,4,0,4,0.00
2013-8-22,87.5,75.5,62.3,72.2,67.2,59.9,93,77,55,30.11,29.88,7,1,7,0.00
2013-8-23,80.9,72.4,62.1,69.5,58.3,49.0,90,63,41,30.19,29.86,7,1,7,0.00
2013-8-24,79.4,66.2,51.9,56.7,51.1,45.6,87,61,33,30.50,30.15,4,0,5,0.00
2013-8-25,81.2,67.5,50.6,60.5,54.5,47.7,91,66,35,30.66,30.24,4,1,4,0.00
2013-8-26,83.0,72.0,62.3,68.0,64.3,59.6,94,78,56,30.36,29.98,4,1,5,0.20
2013-8-27,84.6,73.3,69.2,70.7,67.9,66.1,94,85,56,29.99,29.69,3,0,4,0.07
2013-8-28,87.3,74.9,65.6,71.5,67.8,63.8,94,80,53,29.93,29.64,4,1,8,0.12
2013-8-29,75.8,68.8,64.8,68.6,63.9,61.2,97,85,68,30.08,29.76,6,1,7,0.07
2013-8-30,85.0,73.1,63.0,69.7,64.7,59.8,90,76,48,30.02,29.71,5,1,7,0.00
2013-8-31,81.0,73.7,69.3,73.3,70.2,66.2,96,89,76,29.77,29.58,5,0,7,0.17
2013-9-1,82.7,74.5,67.2,73.5,70.5,66.0,97,88,71,29.92,29.61,3,0,4,0.07
2013-9-2,79.6,73.4,69.5,74.0,70.4,68.1,96,90,76,29.67,29.46,3,0,4,0.18
2013-9-3,78.5,70.3,63.2,69.0,62.3,55.4,96,77,59,29.92,29.50,4,0,4,0.00
2013-9-4,79.8,69.1,58.7,61.0,56.5,51.2,93,68,38,30.00,27.44,4,1,8,0.00
2013-9-5,70.8,62.2,51.7,61.0,50.9,40.1,93,70,34,30.30,29.90,4,0,5,0.00
2013-9-6,69.3,57.1,43.4,48.9,44.2,39.8,91,66,35,30.60,30.30,5,1,5,0.00
2013-9-7,78.2,62.5,46.5,60.6,51.5,43.7,91,70,34,30.44,30.00,4,0,4,0.01
2013-9-8,74.7,63.7,51.2,62.5,52.5,39.3,94,70,34,30.27,29.97,4,0,6,0.00
2013-9-9,68.1,56.2,43.1,61.3,49.0,39.2,99,79,36,30.62,30.28,8,1,8,0.13
2013-9-10,75.3,64.8,56.2,70.7,62.9,54.2,99,94,84,30.46,30.20,4,0,5,0.15
2013-9-11,92.2,77.8,67.7,78.5,72.2,66.9,98,84,55,30.30,29.90,4,1,5,0.20
2013-9-12,81.0,71.6,67.2,75.2,69.0,66.3,97,91,67,29.95,29.63,6,0,6,0.91
2013-9-13,77.6,66.9,58.2,68.4,63.0,54.0,99,88,63,29.85,29.62,4,0,5,0.26
2013-9-14,68.6,60.2,52.1,54.3,51.4,48.0,94,74,54,30.26,29.86,4,0,4,0.01
2013-9-15,71.1,58.6,45.9,54.1,49.6,44.6,97,74,43,30.54,30.26,4,0,5,0.00
2013-9-16,71.3,58.6,46.1,57.9,49.4,36.4,96,74,49,30.59,30.28,4,0,9,0.02
2013-9-17,63.2,52.1,38.9,46.1,39.0,34.7,89,64,36,30.91,30.59,8,1,8,0.00
2013-9-18,70.6,54.2,40.5,52.9,45.6,38.1,94,75,45,30.92,30.49,4,0,4,0.00
2013-9-19,74.7,60.0,44.5,57.4,49.7,42.0,92,72,37,30.67,30.30,4,0,4,0.00
2013-9-20,76.9,61.8,47.6,58.9,52.9,45.9,96,75,45,30.52,30.18,4,0,4,0.00
2013-9-21,75.3,64.4,52.2,66.2,59.4,50.0,97,85,56,30.32,29.77,6,1,9,0.01
2013-9-22,73.1,65.3,52.1,64.8,54.1,42.6,88,69,45,30.08,29.77,4,2,6,0.59
2013-9-23,66.1,54.2,42.5,47.1,42.2,39.4,91,66,40,30.44,30.08,4,1,5,0.00
2013-9-24,68.6,54.4,39.1,47.8,41.3,36.7,91,66,35,30.52,30.19,3,0,4,0.00
2013-9-25,69.5,57.5,41.8,56.1,47.7,39.7,93,72,46,30.42,30.19,4,0,4,0.00
2013-9-26,64.3,58.2,51.7,50.5,47.5,44.2,87,69,50,30.50,30.31,3,0,4,0.00
2013-9-27,65.7,55.9,49.2,52.5,49.6,45.8,91,80,57,30.72,30.49,2,0,3,0.00
2013-9-28,73.5,58.6,43.6,56.9,50.0,41.4,94,75,48,30.90,30.38,3,0,3,0.00
2013-9-29,70.6,57.5,47.0,55.4,49.8,45.0,94,78,47,30.69,30.40,4,0,4,0.00
2013-9-30,70.6,57.0,43.1,53.9,47.8,41.2,93,74,46,30.63,30.32,4,0,4,0.00
2013-10-1,75.5,59.8,45.2,59.2,51.8,42.9,93,77,52,30.50,30.21,3,0,3,0.00
2013-10-2,81.8,64.5,49.9,61.2,55.0,48.8,97,74,48,30.38,30.14,4,1,7,0.00
2013-10-3,76.4,63.1,49.0,56.8,51.5,45.0,93,69,33,30.50,30.22,3,0,5,0.00
2013-10-4,63.6,58.1,53.0,59.5,53.9,49.8,91,86,75,30.51,30.28,3,0,3,0.21
2013-10-5,69.5,63.2,58.5,59.2,57.1,55.4,93,81,63,30.47,30.24,2,0,3,0.04
2013-10-6,60.9,56.8,53.7,58.9,55.3,51.7,97,95,92,30.49,30.33,4,0,4,0.54
2013-10-7,74.0,59.8,53.7,68.2,57.9,51.7,99,94,79,30.41,30.09,8,1,15,0.26
2013-10-8,69.0,56.4,44.9,58.4,43.9,36.1,97,69,31,30.76,30.29,4,0,4,0.00
2013-10-9,62.9,50.2,37.5,46.6,41.3,35.6,94,74,41,31.06,30.63,4,0,5,0.00
2013-10-10,57.3,48.6,40.0,49.9,44.4,37.9,94,86,70,30.81,30.64,2,0,4,0.00
2013-10-11,70.6,56.5,42.9,50.6,45.0,32.7,95,71,26,30.65,30.45,3,0,4,0.00
2013-10-12,64.5,53.8,42.3,53.6,48.6,40.2,92,83,63,30.79,30.52,3,0,4,0.00
2013-10-13,62.7,56.3,47.4,52.6,47.9,44.2,89,74,56,30.88,30.67,4,0,4,0.00
2013-10-14,66.6,57.0,44.9,51.9,48.2,42.6,95,74,56,30.89,30.56,4,0,4,0.00
2013-10-15,69.2,61.2,53.0,56.7,52.9,49.4,90,75,61,30.70,30.43,2,0,3,0.00
2013-10-16,61.4,55.3,50.1,51.6,49.8,47.9,93,82,66,30.56,30.25,2,0,2,0.00
2013-10-17,73.3,60.8,52.4,57.2,51.3,44.5,92,74,37,30.38,29.97,4,0,5,0.00
2013-10-18,69.0,59.0,44.1,60.4,48.4,39.8,97,70,43,30.26,29.92,6,1,6,0.07
2013-10-19,65.9,52.3,37.5,47.0,40.9,35.4,93,68,41,30.43,30.04,4,1,5,0.00
2013-10-20,64.5,53.0,41.1,48.5,38.1,28.1,94,61,29,30.43,30.02,4,1,6,0.01
2013-10-21,66.5,51.9,36.2,44.0,38.7,32.2,90,64,35,30.55,30.27,4,1,5,0.00
2013-10-22,59.4,48.4,39.5,53.6,42.9,36.5,90,81,66,30.36,30.05,4,0,4,0.00
2013-10-23,54.0,44.7,34.8,40.0,34.7,30.0,92,70,42,30.29,29.89,2,0,4,0.00
2013-10-24,54.2,46.1,37.1,36.2,29.3,20.5,76,54,29,30.30,29.97,6,1,11,0.00
2013-10-25,50.6,41.5,31.7,36.7,29.1,24.5,88,63,37,30.61,30.26,6,1,100,0.00
2013-10-26,57.1,41.5,27.8,35.9,27.4,21.5,86,62,25,30.63,29.69,8,2,15,0.00
2013-10-27,59.6,46.9,35.1,36.2,31.3,26.3,76,56,33,29.93,29.64,11,2,19,0.00
2013-10-28,59.4,40.5,27.2,36.7,28.7,21.2,91,66,34,30.49,29.69,8,1,14,0.00
2013-10-29,58.0,35.3,0.0,24.9,21.0,15.3,85,60,22,30.03,29.74,8,1,8,0.04
2013-10-30,57.5,38.5,29.9,39.3,30.3,21.9,92,73,50,30.07,29.75,2,0,4,0.00
2013-10-31,55.1,39.8,29.9,54.9,38.4,28.4,99,95,89,29.93,29.29,5,0,5,0.41
2013-11-1,71.3,60.3,47.9,62.5,55.2,43.3,99,85,52,29.28,28.97,8,2,13,0.17
2013-11-2,71.5,50.4,37.8,47.1,42.8,37.6,99,79,36,29.46,29.12,4,1,10,0.00
2013-11-3,50.4,40.1,27.0,44.5,23.8,12.2,94,55,24,29.99,29.31,15,4,15,0.01
2013-11-4,50.8,30.8,20.0,19.1,14.0,6.4,83,54,21,30.43,29.98,12,2,14,0.00
2013-11-5,57.8,36.1,22.5,32.3,24.8,16.6,85,66,34,30.48,30.06,6,1,7,0.00
2013-11-6,68.1,49.0,35.0,46.6,39.6,29.9,89,72,40,30.21,29.47,13,1,13,0.00
2013-11-7,59.1,50.0,38.7,56.9,43.4,22.9,95,79,49,29.54,29.25,12,2,12,0.04
2013-11-8,51.2,37.1,26.7,35.8,24.8,19.6,85,62,31,29.69,29.38,14,2,14,0.01
2013-11-9,52.4,36.7,0.0,29.9,23.4,18.1,80,59,31,29.94,29.53,6,1,9,0.00
2013-11-10,52.6,42.2,33.0,39.5,33.3,28.0,97,72,47,29.64,29.36,15,2,15,0.01
2013-11-11,56.9,44.0,36.6,31.1,26.2,20.5,76,50,27,29.82,29.45,11,2,14,0.00
2013-11-12,44.0,33.7,25.6,33.2,16.7,4.4,78,51,28,29.91,29.46,11,3,14,0.00
2013-11-13,40.9,28.5,21.6,15.1,8.8,0.9,58,45,22,30.09,29.75,8,2,9,0.00
2013-11-14,59.3,36.7,25.1,23.4,18.5,9.2,76,51,22,29.90,29.53,12,2,14,0.00
2013-11-15,60.5,35.8,21.1,27.7,21.6,15.3,84,62,21,29.95,29.66,3,0,8,0.06
2013-11-16,68.4,42.4,31.2,32.8,27.9,23.3,84,62,21,29.98,29.77,4,0,6,0.00
2013-11-17,44.9,38.9,30.8,44.1,36.1,26.8,97,89,81,30.00,29.50,2,0,3,0.07
2013-11-18,70.4,56.7,44.7,58.3,43.5,29.8,99,66,28,30.12,29.28,14,3,15,0.25
2013-11-19,44.8,38.6,27.9,30.1,21.3,15.0,62,48,34,30.45,29.90,21,4,21,0.00
2013-11-20,45.0,30.0,0.0,16.2,13.3,7.2,70,51,22,30.65,29.96,15,2,15,0.00
2013-11-21,46.4,31.9,18.1,28.0,20.3,11.8,82,63,37,30.25,29.88,5,0,5,0.00
2013-11-22,43.9,40.1,36.3,42.5,37.6,27.8,99,91,69,29.96,29.23,2,0,3,0.07
2013-11-23,48.6,38.1,27.5,45.4,24.5,12.0,99,59,37,29.59,29.24,16,5,19,0.00
2013-11-24,26.8,22.0,17.6,19.1,-1.4,-9.5,81,37,21,29.78,29.31,15,6,21,0.01
2013-11-25,39.7,25.2,13.1,13.0,1.5,-10.6,49,36,23,30.31,29.69,6,2,9,0.00
2013-11-26,38.8,33.1,28.9,31.3,23.4,12.6,93,68,47,30.25,29.87,3,1,4,0.17
2013-11-27,44.6,38.7,33.1,43.7,37.8,28.3,99,96,74,29.93,29.09,11,1,15,1.55
2013-11-28,35.8,27.4,18.3,29.3,11.0,0.5,78,52,27,30.27,29.38,13,1,16,0.01
2013-11-29,35.2,24.4,16.9,17.9,10.9,3.3,80,58,28,30.64,30.26,8,1,9,0.00
2013-11-30,32.0,22.3,10.9,13.5,8.6,3.8,72,56,37,30.73,30.17,4,1,8,0.00
2013-12-1,41.7,33.8,27.5,32.3,25.6,13.2,82,72,54,30.32,29.78,2,0,3,0.00
2013-12-2,43.3,37.4,0.0,36.6,32.4,28.6,88,81,75,30.02,29.83,2,0,3,0.00
2013-12-3,48.0,37.0,0.0,38.2,32.0,23.5,93,82,64,30.06,29.87,5,1,5,0.00
2013-12-4,46.0,32.0,0.0,31.8,25.0,19.3,88,75,52,30.18,29.82,4,0,4,0.00
2013-12-5,41.5,36.6,29.8,40.8,33.5,25.6,98,89,77,30.09,29.58,3,0,3,0.09
2013-12-6,46.9,42.0,0.0,46.0,37.5,30.4,99,84,60,30.38,0.00,8,1,9,0.16
2013-12-7,39.6,33.7,0.0,31.3,23.9,13.5,91,68,43,30.22,0.00,9,2,12,0.15
2013-12-8,33.1,28.9,23.7,18.9,14.5,11.3,67,55,44,30.54,29.89,4,1,6,0.00
2013-12-9,33.4,30.2,25.3,30.1,25.1,16.2,90,81,58,30.03,29.55,7,0,7,0.00
2013-12-10,35.1,30.5,0.0,31.0,24.7,11.6,90,79,54,29.95,29.63,7,0,14,0.01
2013-12-11,32.4,24.7,19.4,19.9,14.0,11.5,75,64,43,30.25,29.94,0,0,0,0.00
2013-12-12,24.4,19.1,12.6,16.9,2.1,-7.9,74,50,24,30.28,29.87,4,0,8,0.00
2013-12-13,27.8,18.1,0.0,19.6,6.7,-2.3,71,60,49,30.25,29.81,4,1,5,0.01
2013-12-14,13.9,10.8,7.1,6.0,-3.9,-10.9,70,51,37,30.31,29.60,4,1,6,0.00
2013-12-15,30.5,23.3,13.9,22.0,14.4,6.0,77,68,54,29.69,28.85,4,1,4,0.00
2013-12-16,32.6,22.2,13.9,16.3,5.2,-3.1,71,48,29,29.74,29.16,8,2,11,0.00
2013-12-17,15.2,8.3,-0.5,5.2,-2.8,-13.8,68,60,48,29.85,29.35,4,0,4,0.00
2013-12-18,38.6,21.5,0.0,18.9,10.8,4.4,73,63,34,30.13,29.40,4,0,4,0.00
2013-12-19,43.8,29.8,18.2,24.4,18.9,9.5,76,64,42,30.10,29.80,6,1,6,0.00
2013-12-20,40.4,32.3,26.1,32.5,25.8,18.7,85,77,63,30.17,29.72,4,0,4,0.00
2013-12-21,47.0,37.0,32.3,38.5,32.2,28.5,89,83,70,30.01,29.63,3,0,3,0.00
2013-12-22,54.6,45.8,35.5,54.0,44.6,31.7,99,96,86,29.92,29.46,5,1,5,0.00
2013-12-23,40.4,38.7,35.3,40.1,38.1,28.2,99,98,75,30.02,29.75,4,0,4,0.00
2013-12-24,45.0,31.3,20.6,27.9,13.8,-0.9,74,49,27,30.21,29.88,5,1,5,0.00
2013-12-25,32.1,19.2,12.8,4.3,-3.9,-9.3,52,36,22,30.35,30.11,11,1,11,0.00
2013-12-26,27.2,22.9,19.1,18.9,11.3,2.5,80,61,45,30.48,29.91,3,0,3,0.00
2013-12-27,34.8,28.0,17.0,20.2,15.7,8.9,76,60,44,30.22,29.97,8,1,8,0.00
2013-12-28,42.5,30.2,23.1,27.1,20.1,14.4,77,66,52,30.19,29.82,7,1,7,0.00
2013-12-29,35.9,30.9,24.5,31.8,25.3,18.1,87,80,66,30.09,29.31,4,0,4,0.00
2013-12-30,40.7,28.6,14.4,32.4,14.2,-2.9,89,57,28,30.12,29.44,8,1,8,0.00
2013-12-31,28.1,18.3,9.8,10.4,1.3,-7.4,65,48,26,30.03,29.81,7,1,7,0.00
2014-1-1,30.5,20.9,0.0,9.6,1.8,-5.7,58,43,27,30.23,29.82,4,1,4,0.00
2014-1-2,26.5,12.8,0.0,9.7,2.7,-5.7,68,63,29,30.27,29.70,7,1,7,0.00